Location: Campillo
(40.8621°N, 4.2488°W)
Time: 11:18:29
(UTC+00:00)

Cosmos 1733 Rocket - Pass Details

Date: 11 May 2021
Orbit: 603 x 628 km, 82.5° (Epoch: 13 June)

Event Time Altitude Azimuth Distance (km) Brightness Sun altitude
Rises 22:59:48 0° 353° (N) 2,866 7.6 -28.6°
Reaches altitude 10° 23:02:02 10° 354° (N) 1,957 6.5 -28.7°
Enters shadow 23:04:55 42° 358° (N) 874 4.1 -28.9°
